Flight Track Log - Related Links

Times and Time Zones

All times are in EDT time to prevent confusion due to time zone crossing. See the SWA3943 flight status page for this flight to view local times or setup timezone preferences in your user account.

Time Position Orientation Groundspeed Altitude Reporting Facility
EDT Latitude Longitude Course Direction KTS MPH feet Rate Location/Type
Mon 09:05:25 PM 39.9967 -82.9367 276° West 172 198 2,500  Level Indianapolis Center
Mon 09:05:48 PM 39.9978 -82.9661 273° West 194 223 3,900 3,818 Climbing Indianapolis Center
Mon 09:06:20 PM 40.0000 -83.0106 274° West 213 245 6,000 3,836 Climbing Indianapolis Center
Mon 09:06:49 PM 39.9811 -83.0289 217° Southwest 213 245 7,800 2,733 Climbing Indianapolis Center
Mon 09:07:50 PM 39.9586 -82.9519 111° Southeast 264 304 10,100 3,000 Climbing Indianapolis Center
Mon 09:08:51 PM 39.9550 -82.8358 92° East 314 361 13,900 3,610 Climbing Indianapolis Center
Mon 09:09:53 PM 39.9492 -82.7064 93° East 351 404 17,500 3,366 Climbing Indianapolis Center
Mon 09:10:54 PM 39.9469 -82.5667 91° East 380 437 20,800 3,295 Climbing Indianapolis Center
Mon 09:11:55 PM 39.9433 -82.4217 92° East 394 453 24,200 3,246 Climbing Indianapolis Center
Mon 09:12:56 PM 39.9397 -82.2736 92° East 403 464 27,400 2,607 Climbing Indianapolis Center
Mon 09:13:57 PM 39.9358 -82.1192 92° East 421 484 29,500 2,016 Climbing Indianapolis Center
Mon 09:14:58 PM 39.9306 -81.9578 92° East 437 503 31,500 2,098 Climbing Indianapolis Center
Mon 09:16:00 PM 39.9261 -81.7914 92° East 454 522 33,800 1,707 Climbing Indianapolis Center
Mon 09:17:01 PM 39.9208 -81.6264 92° East 452 520 35,000 590 Climbing Indianapolis Center
Mon 09:18:02 PM 39.9047 -81.4614 97° East 454 522 35,000  Level Indianapolis Center
Mon 09:19:03 PM 39.8889 -81.2867 97° East 451 519 35,000  Level Indianapolis Center
Mon 09:20:04 PM 39.8733 -81.1242 97° East 451 519 35,000  Level Indianapolis Center
Mon 09:20:49 PM 39.8642 -80.9969 95° East 449 517 35,000 -457 Level Cleveland Center
Mon 09:21:49 PM 39.8458 -80.8372 98° East 444 511 34,200 -500 Descending Cleveland Center
Mon 09:22:49 PM 39.8317 -80.6778 97° East 444 511 34,000 -100 Descending Cleveland Center
Mon 09:23:49 PM 39.8169 -80.5156 97° East 444 511 34,000 -250 Level Cleveland Center
Mon 09:24:49 PM 39.8000 -80.3589 98° East 444 511 33,500 -500 Descending Cleveland Center
Mon 09:25:49 PM 39.7850 -80.1967 97° East 444 511 33,000 -250 Descending Cleveland Center
Mon 09:26:49 PM 39.7658 -80.0375 99° East 444 511 33,000  Level Cleveland Center
Mon 09:27:49 PM 39.7522 -79.8811 96° East 444 511 33,000 -343 Level Cleveland Center
Mon 09:30:19 PM 39.7089 -79.4947 98° East 449 517 31,800 -1,200 Descending Washington Center
Mon 09:31:19 PM 39.6911 -79.3344 98° East 449 517 28,800 -2,750 Descending Washington Center
Mon 09:32:19 PM 39.6728 -79.1800 99° East 444 511 26,300 -1,900 Descending Washington Center
Mon 09:33:19 PM 39.6500 -79.0306 101° East 431 496 25,000 -650 Descending Washington Center
Mon 09:34:19 PM 39.6150 -78.8725 106° East 413 475 25,000  Level Washington Center
Mon 09:35:19 PM 39.5833 -78.7311 106° East 413 475 25,000 -1,050 Level Washington Center
Mon 09:36:19 PM 39.5533 -78.5925 106° East 408 470 22,900 -2,150 Descending Washington Center
Mon 09:37:19 PM 39.5233 -78.4594 106° East 397 457 20,700 -2,200 Descending Washington Center
Mon 09:38:19 PM 39.4931 -78.3319 107° East 380 437 18,500 -2,150 Descending Washington Center
Mon 09:39:19 PM 39.4644 -78.2044 106° East 374 430 16,400 -1,750 Descending Washington Center
Mon 09:40:19 PM 39.4483 -78.0775 99° East 367 422 15,000 -700 Descending Washington Center
Mon 09:41:19 PM 39.4489 -77.9514 90° East 355 409 15,000  Level Washington Center
Mon 09:42:19 PM 39.4492 -77.8222 90° East 350 403 15,000  Level Washington Center
Mon 09:43:19 PM 39.4472 -77.7011 91° East 345 397 15,000 -650 Level Washington Center
Mon 09:44:19 PM 39.4472 -77.5775 90° East 345 397 13,700 -1,600 Descending Washington Center
Mon 09:45:19 PM 39.4469 -77.4619 90° East 339 390 11,800 -1,350 Descending Washington Center
Mon 09:46:19 PM 39.4486 -77.3492 89° East 324 373 11,000 -527 Descending Washington Center
Mon 09:46:50 PM 39.4500 -77.3000 88° East 305 351 11,000 -494 Level Potomac TRACON
Mon 09:47:44 PM 39.4667 -77.2000 78° East 272 313 10,300 -1,632 Descending Potomac TRACON
Mon 09:48:44 PM 39.4333 -77.1167 117° Southeast 286 329 7,900 -2,050 Descending Potomac TRACON
Mon 09:49:44 PM 39.3833 -77.0500 134° Southeast 263 303 6,200 -1,606 Descending Potomac TRACON
Mon 09:50:51 PM 39.3167 -77.0000 150° Southeast 266 306 4,500 -1,091 Descending Potomac TRACON
Mon 09:51:45 PM 39.2500 -76.9500 150° Southeast 232 267 4,000 -579 Descending Potomac TRACON
Mon 09:52:45 PM 39.2000 -76.9167 153° Southeast 203 234 3,400 -550 Descending Potomac TRACON
Mon 09:53:45 PM 39.1833 -76.8667 113° Southeast 170 196 2,900 -632 Descending Potomac TRACON
Mon 09:54:39 PM 39.1833 -76.8167 90° East 153 176 2,200 -800 Descending Potomac TRACON
Mon 09:55:45 PM 39.1833 -76.7500 90° East 137 158 1,300 -714 Descending Potomac TRACON
Mon 09:56:45 PM 39.1833 -76.7167 90° East 113 130 700 -600 Descending Potomac TRACON
Mon 09:59:00 PM 39.1667 -76.6667 98° East  Level FlightAware Approximate
Mon 10:06:00 PM 39.1754 -76.6683 98° East  Level Estimated
Mon 10:07:00 PM 39.1754 -76.6683 98° East  Level Estimated
Mon 10:08:00 PM 39.1754 -76.6683 98° East  Level Estimated

Login

Don't have an account? Register now (free) for customized features, flight alerts, and more!